AAL296 KLAX-MMMX

Flight info

Callsign AAL296
Flight time 2h 58m
Altitude 37000
Route PNDAH2 TCATE DCT PPE UJ7 LIDUK/N0483F390 UJ7 HMO UT18 NABAS UT49 DGO UJ5 ZCL UT130 DARAN DARAN3B
Aircraft B77W/H-SDE1E2E3FGHIJ2J3J4J5M1RWXY/LB1D1

Departure

Time 2026-05-06 00:30
Airport Los Angeles International Airport (KLAX)

Arrival

Time 2026-05-06 03:28
Airport Mexico City Benito Juárez International Airport (MMMX)
Time Latitude Longitude Altitude Speed Heading
2026-05-05 23:39 33.94458 -118.41143 125 ft 0 kts 84°
2026-05-06 00:17 33.94458 -118.41145 130 ft 2 kts 83°
2026-05-06 00:18 33.94457 -118.41164 125 ft 2 kts 90°
2026-05-06 00:18 33.94458 -118.41184 125 ft 2 kts 97°
2026-05-06 00:18 33.94461 -118.41203 125 ft 2 kts 107°
2026-05-06 00:18 33.94467 -118.41222 125 ft 2 kts 120°
2026-05-06 00:19 33.94476 -118.41238 125 ft 2 kts 136°
2026-05-06 00:19 33.94489 -118.41249 125 ft 2 kts 153°
2026-05-06 00:19 33.94504 -118.41257 126 ft 2 kts 166°
2026-05-06 00:19 33.94516 -118.41260 125 ft 1 kts 172°
2026-05-06 00:20 33.94519 -118.41260 125 ft 0 kts 172°
2026-05-06 00:23 33.94517 -118.41260 130 ft 1 kts 173°
2026-05-06 00:23 33.94509 -118.41266 127 ft 2 kts 214°
2026-05-06 00:23 33.94502 -118.41286 127 ft 4 kts 248°
2026-05-06 00:24 33.94510 -118.41337 128 ft 9 kts 308°
2026-05-06 00:24 33.94579 -118.41367 128 ft 12 kts 350°
2026-05-06 00:24 33.94665 -118.41381 127 ft 12 kts 353°
2026-05-06 00:24 33.94750 -118.41386 128 ft 12 kts 15°
2026-05-06 00:25 33.94792 -118.41299 129 ft 13 kts 79°
2026-05-06 00:25 33.94804 -118.41194 126 ft 13 kts 83°
2026-05-06 00:25 33.94814 -118.41090 128 ft 13 kts 83°
2026-05-06 00:25 33.94825 -118.40985 128 ft 13 kts 83°
2026-05-06 00:26 33.94836 -118.40881 130 ft 13 kts 83°
2026-05-06 00:26 33.94846 -118.40775 128 ft 13 kts 83°
2026-05-06 00:26 33.94857 -118.40671 130 ft 13 kts 83°
2026-05-06 00:26 33.94868 -118.40566 129 ft 13 kts 83°
2026-05-06 00:27 33.94879 -118.40461 127 ft 13 kts 83°
2026-05-06 00:27 33.94890 -118.40357 125 ft 13 kts 82°
2026-05-06 00:27 33.94900 -118.40253 127 ft 13 kts 83°
2026-05-06 00:27 33.94911 -118.40148 129 ft 13 kts 82°
2026-05-06 00:28 33.94922 -118.40044 129 ft 13 kts 83°
2026-05-06 00:28 33.94944 -118.39943 129 ft 13 kts 52°
2026-05-06 00:28 33.95022 -118.39936 128 ft 13 kts 315°
2026-05-06 00:28 33.95033 -118.40040 125 ft 13 kts 263°
2026-05-06 00:29 33.95022 -118.40159 128 ft 23 kts 263°
2026-05-06 00:29 33.94967 -118.40692 130 ft 106 kts 263°
2026-05-06 00:29 33.94848 -118.41842 127 ft 169 kts 262°
2026-05-06 00:29 33.94690 -118.43360 597 ft 185 kts 260°
2026-05-06 00:30 33.94533 -118.44856 1647 ft 179 kts 264°
2026-05-06 00:30 33.94388 -118.46362 2229 ft 184 kts 264°
2026-05-06 00:30 33.94293 -118.48016 2559 ft 213 kts 268°
2026-05-06 00:30 33.94240 -118.49915 2938 ft 239 kts 268°
2026-05-06 00:31 33.93818 -118.51889 3481 ft 254 kts 236°
2026-05-06 00:31 33.92445 -118.53239 4340 ft 263 kts 201°
2026-05-06 00:31 33.90617 -118.53547 5209 ft 268 kts 179°
2026-05-06 00:31 33.88730 -118.53429 5961 ft 279 kts 178°
2026-05-06 00:32 33.86798 -118.53292 6859 ft 282 kts 177°
2026-05-06 00:32 33.84823 -118.53145 7735 ft 286 kts 177°
2026-05-06 00:32 33.82826 -118.52996 8591 ft 291 kts 176°
2026-05-06 00:32 33.80812 -118.52849 9565 ft 290 kts 176°
2026-05-06 00:33 33.78763 -118.52703 10239 ft 301 kts 176°
2026-05-06 00:33 33.76591 -118.52552 10596 ft 326 kts 176°
2026-05-06 00:33 33.74215 -118.52389 10841 ft 354 kts 176°
2026-05-06 00:33 33.71729 -118.52009 10933 ft 377 kts 162°
2026-05-06 00:34 33.69424 -118.50439 11479 ft 389 kts 136°
2026-05-06 00:34 33.67789 -118.47857 12397 ft 388 kts 117°
2026-05-06 00:34 33.66542 -118.44938 13147 ft 400 kts 115°
2026-05-06 00:34 33.65638 -118.42783 13804 ft 406 kts 115°
2026-05-06 00:35 33.64412 -118.39860 14847 ft 406 kts 116°
2026-05-06 00:35 33.63139 -118.36843 15924 ft 407 kts 115°
2026-05-06 00:35 33.61843 -118.33792 16892 ft 412 kts 116°
2026-05-06 00:35 33.60527 -118.30719 17893 ft 417 kts 116°
2026-05-06 00:36 33.59184 -118.27601 18740 ft 423 kts 116°
2026-05-06 00:36 33.57818 -118.24437 19542 ft 429 kts 116°
2026-05-06 00:36 33.56433 -118.21232 20259 ft 437 kts 117°
2026-05-06 00:36 33.55045 -118.18024 21104 ft 441 kts 117°
2026-05-06 00:37 33.53626 -118.14750 21967 ft 445 kts 116°
2026-05-06 00:37 33.52195 -118.11430 22685 ft 451 kts 116°
2026-05-06 00:37 33.50742 -118.08049 23383 ft 458 kts 116°
2026-05-06 00:37 33.49272 -118.04631 24089 ft 461 kts 117°
2026-05-06 00:38 33.47659 -118.01304 24820 ft 462 kts 124°
2026-05-06 00:38 33.45736 -117.98241 25341 ft 470 kts 130°
2026-05-06 00:38 33.43502 -117.95354 25858 ft 475 kts 137°
2026-05-06 00:38 33.41015 -117.92702 26335 ft 482 kts 140°
2026-05-06 00:39 33.38456 -117.90047 26712 ft 491 kts 141°
2026-05-06 00:39 33.35858 -117.87348 27219 ft 496 kts 141°
2026-05-06 00:39 33.33253 -117.84620 27784 ft 499 kts 140°
2026-05-06 00:39 33.30639 -117.81861 28333 ft 503 kts 140°
2026-05-06 00:40 33.28035 -117.79103 28799 ft 508 kts 140°
2026-05-06 00:40 33.25380 -117.76288 29222 ft 513 kts 141°
2026-05-06 00:40 33.22698 -117.73449 29632 ft 517 kts 141°
2026-05-06 00:40 33.20016 -117.70572 30012 ft 522 kts 139°
2026-05-06 00:41 33.17595 -117.67304 30436 ft 527 kts 129°
2026-05-06 00:41 33.15586 -117.63642 30939 ft 528 kts 121°
2026-05-06 00:41 33.13971 -117.59702 31445 ft 530 kts 112°
2026-05-06 00:41 33.12741 -117.55558 31911 ft 530 kts 110°
2026-05-06 00:42 33.11563 -117.51375 32341 ft 530 kts 109°
2026-05-06 00:42 33.10392 -117.47202 32841 ft 530 kts 110°
2026-05-06 00:42 33.09223 -117.43089 33259 ft 530 kts 110°
2026-05-06 00:42 33.08017 -117.38920 33690 ft 531 kts 110°
2026-05-06 00:43 33.06799 -117.34767 34070 ft 531 kts 111°
2026-05-06 00:43 33.05563 -117.30597 34274 ft 536 kts 111°
2026-05-06 00:43 33.04315 -117.26406 34614 ft 536 kts 111°
2026-05-06 00:43 33.03066 -117.22221 35034 ft 534 kts 111°
2026-05-06 00:44 33.01823 -117.18054 35463 ft 532 kts 111°
2026-05-06 00:44 33.00584 -117.13903 35857 ft 532 kts 112°
2026-05-06 00:44 32.99343 -117.09748 36166 ft 532 kts 112°
2026-05-06 00:44 32.98103 -117.05601 36515 ft 532 kts 112°
2026-05-06 00:45 32.96859 -117.01446 36874 ft 531 kts 112°
2026-05-06 00:45 32.95616 -116.97299 37081 ft 535 kts 112°
2026-05-06 00:45 32.94357 -116.93109 37034 ft 538 kts 112°
2026-05-06 00:46 32.91863 -116.84812 37023 ft 531 kts 112°
2026-05-06 00:46 32.89373 -116.76552 37036 ft 529 kts 112°
2026-05-06 00:47 32.86879 -116.68312 37029 ft 529 kts 112°
2026-05-06 00:47 32.84379 -116.60066 37011 ft 530 kts 112°
2026-05-06 00:48 32.81885 -116.51861 37011 ft 531 kts 113°
2026-05-06 00:48 32.78984 -116.43822 37009 ft 527 kts 121°
2026-05-06 00:49 32.75583 -116.36105 36995 ft 528 kts 122°
2026-05-06 00:49 32.72150 -116.28376 36995 ft 529 kts 122°
2026-05-06 00:50 32.68748 -116.20632 36979 ft 529 kts 122°
2026-05-06 00:50 32.65363 -116.12882 36967 ft 528 kts 122°
2026-05-06 00:51 32.61984 -116.05160 36967 ft 527 kts 122°
2026-05-06 00:51 32.58600 -115.97446 36949 ft 527 kts 122°
2026-05-06 00:52 32.55212 -115.89740 36952 ft 526 kts 123°
2026-05-06 00:52 32.51828 -115.82071 37117 ft 530 kts 123°
2026-05-06 00:52 32.50116 -115.78198 37447 ft 530 kts 123°
2026-05-06 00:53 32.48408 -115.74333 37812 ft 527 kts 123°
2026-05-06 00:53 32.46704 -115.70482 38083 ft 528 kts 123°
2026-05-06 00:53 32.44996 -115.66626 38368 ft 528 kts 123°
2026-05-06 00:53 32.43294 -115.62787 38682 ft 526 kts 124°
2026-05-06 00:54 32.41593 -115.58955 38849 ft 528 kts 124°
2026-05-06 00:54 32.38197 -115.51317 38905 ft 522 kts 124°
2026-05-06 00:55 32.34841 -115.43769 38898 ft 515 kts 124°
2026-05-06 00:55 32.31500 -115.36286 38905 ft 514 kts 124°
2026-05-06 00:56 32.28141 -115.28808 38903 ft 518 kts 125°
2026-05-06 00:56 32.24743 -115.21241 38907 ft 523 kts 125°
2026-05-06 00:57 32.21326 -115.13631 38904 ft 524 kts 125°
2026-05-06 00:57 32.17902 -115.06017 38897 ft 524 kts 125°
2026-05-06 00:58 32.14499 -114.98469 38843 ft 523 kts 126°
2026-05-06 00:58 32.11085 -114.90914 38882 ft 519 kts 126°
2026-05-06 00:59 32.07686 -114.83411 38889 ft 517 kts 126°
2026-05-06 00:59 32.04290 -114.75933 38890 ft 516 kts 126°
2026-05-06 01:00 32.01470 -114.69734 38898 ft 515 kts 126°
2026-05-06 01:00 31.97526 -114.61084 38843 ft 515 kts 126°
2026-05-06 01:01 31.94669 -114.54834 38905 ft 520 kts 127°
2026-05-06 01:01 31.91213 -114.47291 38905 ft 524 kts 127°
2026-05-06 01:02 31.87750 -114.39729 38901 ft 525 kts 127°
2026-05-06 01:02 31.84296 -114.32203 38917 ft 525 kts 127°
2026-05-06 01:03 31.80819 -114.24648 38911 ft 525 kts 127°
2026-05-06 01:03 31.77340 -114.17102 38896 ft 524 kts 128°
2026-05-06 01:04 31.73852 -114.09558 38909 ft 524 kts 128°
2026-05-06 01:04 31.70364 -114.02027 38918 ft 525 kts 128°
2026-05-06 01:05 31.66869 -113.94498 38918 ft 525 kts 128°
2026-05-06 01:05 31.63389 -113.87016 38912 ft 525 kts 128°
2026-05-06 01:06 31.59879 -113.79480 38909 ft 525 kts 129°
2026-05-06 01:06 31.56366 -113.71957 38916 ft 527 kts 129°
2026-05-06 01:07 31.52837 -113.64416 38916 ft 528 kts 129°
2026-05-06 01:07 31.49295 -113.56859 38923 ft 529 kts 129°
2026-05-06 01:08 31.45764 -113.49337 38919 ft 530 kts 129°
2026-05-06 01:08 31.42206 -113.41771 38922 ft 529 kts 129°
2026-05-06 01:09 31.38578 -113.34288 38939 ft 522 kts 135°
2026-05-06 01:09 31.36474 -113.30883 38944 ft 511 kts 141°
2026-05-06 01:09 31.34182 -113.27750 38957 ft 503 kts 145°
2026-05-06 01:09 31.31726 -113.24886 38941 ft 492 kts 151°
2026-05-06 01:10 31.29146 -113.22260 38955 ft 490 kts 152°
2026-05-06 01:10 31.23994 -113.17093 38937 ft 490 kts 152°
2026-05-06 01:11 31.18821 -113.11883 38941 ft 491 kts 152°
2026-05-06 01:11 31.13668 -113.06659 38929 ft 490 kts 152°
2026-05-06 01:12 31.08527 -113.01436 38936 ft 489 kts 152°
2026-05-06 01:12 31.03389 -112.96225 38935 ft 489 kts 152°
2026-05-06 01:13 30.98266 -112.91038 38929 ft 487 kts 152°
2026-05-06 01:13 30.93179 -112.85899 38925 ft 487 kts 152°
2026-05-06 01:14 30.85513 -112.78169 38919 ft 486 kts 152°
2026-05-06 01:14 30.80398 -112.73019 38891 ft 485 kts 153°
2026-05-06 01:15 30.75302 -112.67893 38918 ft 483 kts 153°
2026-05-06 01:15 30.70215 -112.62790 38924 ft 483 kts 153°
2026-05-06 01:16 30.65161 -112.57727 38916 ft 483 kts 154°
2026-05-06 01:16 30.60079 -112.52644 38919 ft 481 kts 153°
2026-05-06 01:17 30.55009 -112.47569 38933 ft 480 kts 153°
2026-05-06 01:17 30.49948 -112.42497 38957 ft 478 kts 154°
2026-05-06 01:18 30.44890 -112.37474 38929 ft 479 kts 154°
2026-05-06 01:18 30.39822 -112.32441 38927 ft 479 kts 154°
2026-05-06 01:19 30.34754 -112.27403 38913 ft 478 kts 154°
2026-05-06 01:19 30.29739 -112.22420 38925 ft 477 kts 154°
2026-05-06 01:20 30.24700 -112.17427 38923 ft 477 kts 154°
2026-05-06 01:20 30.19659 -112.12438 38912 ft 476 kts 154°
2026-05-06 01:21 30.14629 -112.07467 38925 ft 475 kts 154°
2026-05-06 01:21 30.09599 -112.02503 38928 ft 475 kts 154°
2026-05-06 01:22 30.04576 -111.97548 38915 ft 474 kts 154°
2026-05-06 01:22 29.99557 -111.92615 38922 ft 474 kts 154°
2026-05-06 01:23 29.94533 -111.87678 38923 ft 475 kts 154°
2026-05-06 01:23 29.89505 -111.82739 38914 ft 474 kts 154°
2026-05-06 01:24 29.84502 -111.77834 38903 ft 475 kts 154°
2026-05-06 01:24 29.79460 -111.72909 38924 ft 474 kts 154°
2026-05-06 01:25 29.74425 -111.67983 38922 ft 475 kts 154°
2026-05-06 01:25 29.69396 -111.63050 38921 ft 475 kts 154°
2026-05-06 01:26 29.64367 -111.58133 38912 ft 473 kts 154°
2026-05-06 01:26 29.59320 -111.53221 38908 ft 475 kts 154°
2026-05-06 01:27 29.54260 -111.48300 38913 ft 477 kts 154°
2026-05-06 01:27 29.49221 -111.43402 38913 ft 478 kts 154°
2026-05-06 01:28 29.44140 -111.38464 38875 ft 479 kts 154°
2026-05-06 01:28 29.39048 -111.33531 38901 ft 480 kts 154°
2026-05-06 01:29 29.33931 -111.28598 38914 ft 481 kts 154°
2026-05-06 01:29 29.28800 -111.23657 38914 ft 482 kts 154°
2026-05-06 01:30 29.23667 -111.18716 38926 ft 482 kts 154°
2026-05-06 01:30 29.18531 -111.13774 38917 ft 482 kts 154°
2026-05-06 01:31 29.13399 -111.08845 38944 ft 482 kts 154°
2026-05-06 01:31 29.08308 -111.03782 38947 ft 493 kts 148°
2026-05-06 01:32 29.03519 -110.98094 38947 ft 498 kts 147°
2026-05-06 01:32 28.98781 -110.92374 38930 ft 498 kts 147°
2026-05-06 01:33 28.93985 -110.86652 38925 ft 497 kts 147°
2026-05-06 01:33 28.89182 -110.80967 38916 ft 497 kts 147°
2026-05-06 01:34 28.84375 -110.75287 38907 ft 498 kts 147°
2026-05-06 01:34 28.79594 -110.69640 38903 ft 498 kts 147°
2026-05-06 01:35 28.74789 -110.63971 38876 ft 497 kts 147°
2026-05-06 01:35 28.69969 -110.58343 38896 ft 496 kts 148°
2026-05-06 01:36 28.65129 -110.52740 38904 ft 496 kts 147°
2026-05-06 01:36 28.60303 -110.47132 38890 ft 495 kts 148°
2026-05-06 01:37 28.55481 -110.41539 38907 ft 494 kts 148°
2026-05-06 01:37 28.50669 -110.35969 38914 ft 493 kts 147°
2026-05-06 01:38 28.45857 -110.30406 38913 ft 493 kts 147°
2026-05-06 01:38 28.41040 -110.24842 38910 ft 493 kts 148°
2026-05-06 01:39 28.36220 -110.19284 38916 ft 494 kts 148°
2026-05-06 01:39 28.31422 -110.13758 38911 ft 495 kts 148°
2026-05-06 01:40 28.26597 -110.08206 38899 ft 492 kts 148°
2026-05-06 01:40 28.21801 -110.02695 38902 ft 490 kts 148°
2026-05-06 01:41 28.17018 -109.97209 38903 ft 488 kts 148°
2026-05-06 01:41 28.12269 -109.91698 38907 ft 487 kts 147°
2026-05-06 01:42 28.07599 -109.86204 38913 ft 486 kts 147°
2026-05-06 01:42 28.02911 -109.80698 38919 ft 485 kts 147°
2026-05-06 01:43 27.98218 -109.75207 38924 ft 485 kts 147°
2026-05-06 01:43 27.94283 -109.70604 38906 ft 485 kts 147°
2026-05-06 01:44 27.89613 -109.65165 38940 ft 486 kts 147°
2026-05-06 01:44 27.84895 -109.59677 38932 ft 487 kts 147°
2026-05-06 01:45 27.80168 -109.54177 38910 ft 488 kts 147°
2026-05-06 01:45 27.75430 -109.48667 38955 ft 487 kts 147°
2026-05-06 01:46 27.70685 -109.43173 38948 ft 489 kts 147°
2026-05-06 01:46 27.65944 -109.37670 38943 ft 489 kts 147°
2026-05-06 01:47 27.61199 -109.32174 38936 ft 488 kts 147°
2026-05-06 01:47 27.56457 -109.26707 38900 ft 486 kts 147°
2026-05-06 01:48 27.51746 -109.21340 38932 ft 484 kts 147°
2026-05-06 01:48 27.46997 -109.15952 38935 ft 484 kts 147°
2026-05-06 01:49 27.42256 -109.10571 38931 ft 484 kts 147°
2026-05-06 01:49 27.37511 -109.05186 38947 ft 485 kts 147°
2026-05-06 01:50 27.32764 -108.99780 38920 ft 486 kts 146°
2026-05-06 01:50 27.27994 -108.94386 38940 ft 487 kts 146°
2026-05-06 01:51 27.23133 -108.88909 38959 ft 489 kts 146°
2026-05-06 01:51 27.18357 -108.83517 38953 ft 491 kts 146°
2026-05-06 01:52 27.13523 -108.78057 38942 ft 493 kts 146°
2026-05-06 01:52 27.08681 -108.72602 38948 ft 494 kts 146°
2026-05-06 01:53 27.03839 -108.67147 38949 ft 493 kts 145°
2026-05-06 01:53 26.98983 -108.61696 38930 ft 495 kts 145°
2026-05-06 01:54 26.94149 -108.56269 38963 ft 494 kts 146°
2026-05-06 01:54 26.89285 -108.50829 38943 ft 493 kts 146°
2026-05-06 01:55 26.84423 -108.45386 38934 ft 493 kts 145°
2026-05-06 01:55 26.79587 -108.39961 38918 ft 492 kts 145°
2026-05-06 01:56 26.74725 -108.34534 38951 ft 494 kts 145°
2026-05-06 01:56 26.69842 -108.29095 38954 ft 496 kts 145°
2026-05-06 01:57 26.64930 -108.23621 38951 ft 499 kts 145°
2026-05-06 01:57 26.60028 -108.18147 38953 ft 504 kts 143°
2026-05-06 01:58 26.55545 -108.11971 38979 ft 517 kts 135°
2026-05-06 01:58 26.51405 -108.05401 38946 ft 516 kts 134°
2026-05-06 01:59 26.47281 -107.98861 38960 ft 513 kts 135°
2026-05-06 01:59 26.43138 -107.92391 38955 ft 511 kts 135°
2026-05-06 02:00 26.39747 -107.87133 38991 ft 510 kts 135°
2026-05-06 02:00 26.35590 -107.80701 38988 ft 511 kts 135°
2026-05-06 02:01 26.31436 -107.74266 38958 ft 511 kts 135°
2026-05-06 02:01 26.27291 -107.67853 38955 ft 509 kts 135°
2026-05-06 02:02 26.23148 -107.61466 38896 ft 509 kts 135°
2026-05-06 02:02 26.19040 -107.55118 38931 ft 507 kts 135°
2026-05-06 02:03 26.14932 -107.48790 38947 ft 504 kts 135°
2026-05-06 02:03 26.10828 -107.42478 38945 ft 503 kts 135°
2026-05-06 02:04 26.06737 -107.36195 38865 ft 498 kts 134°
2026-05-06 02:04 26.02665 -107.29951 38918 ft 501 kts 134°
2026-05-06 02:05 25.98557 -107.23655 38970 ft 504 kts 135°
2026-05-06 02:05 25.94430 -107.17352 38998 ft 510 kts 134°
2026-05-06 02:06 25.90246 -107.10953 38951 ft 509 kts 134°
2026-05-06 02:06 25.86127 -107.04656 38972 ft 500 kts 134°
2026-05-06 02:07 25.82031 -106.98386 38973 ft 502 kts 133°
2026-05-06 02:07 25.77923 -106.92102 38972 ft 503 kts 133°
2026-05-06 02:08 25.73816 -106.85801 38986 ft 504 kts 133°
2026-05-06 02:08 25.69717 -106.79536 38995 ft 506 kts 133°
2026-05-06 02:09 25.65580 -106.73221 39029 ft 506 kts 133°
2026-05-06 02:09 25.61439 -106.66901 38970 ft 507 kts 133°
2026-05-06 02:10 25.57276 -106.60583 38993 ft 509 kts 133°
2026-05-06 02:10 25.53100 -106.54236 38971 ft 510 kts 133°
2026-05-06 02:11 25.48925 -106.47891 38981 ft 510 kts 133°
2026-05-06 02:11 25.44742 -106.41549 38987 ft 510 kts 133°
2026-05-06 02:12 25.40545 -106.35223 38980 ft 509 kts 133°
2026-05-06 02:12 25.36301 -106.28976 38991 ft 507 kts 134°
2026-05-06 02:13 25.32568 -106.23512 38981 ft 505 kts 133°
2026-05-06 02:13 25.28337 -106.17302 38979 ft 505 kts 133°
2026-05-06 02:14 25.24115 -106.11099 38973 ft 504 kts 134°
2026-05-06 02:14 25.19915 -106.04934 38982 ft 502 kts 133°
2026-05-06 02:15 25.15737 -105.98816 39007 ft 501 kts 134°
2026-05-06 02:15 25.11544 -105.92681 38982 ft 501 kts 134°
2026-05-06 02:16 25.07343 -105.86542 38955 ft 501 kts 133°
2026-05-06 02:16 25.03140 -105.80402 38961 ft 502 kts 133°
2026-05-06 02:17 24.98942 -105.74262 38961 ft 502 kts 133°
2026-05-06 02:17 24.94730 -105.68115 38960 ft 502 kts 133°
2026-05-06 02:18 24.90510 -105.61961 38955 ft 503 kts 134°
2026-05-06 02:18 24.86281 -105.55804 38958 ft 504 kts 134°
2026-05-06 02:19 24.82041 -105.49636 38919 ft 505 kts 133°
2026-05-06 02:19 24.77837 -105.43525 38931 ft 504 kts 133°
2026-05-06 02:20 24.71476 -105.34304 38940 ft 503 kts 133°
2026-05-06 02:21 24.67247 -105.28176 38949 ft 503 kts 133°
2026-05-06 02:21 24.63004 -105.22042 38944 ft 504 kts 133°
2026-05-06 02:22 24.58758 -105.15928 38932 ft 505 kts 133°
2026-05-06 02:22 24.54489 -105.09790 38922 ft 506 kts 133°
2026-05-06 02:23 24.50218 -105.03653 38910 ft 505 kts 133°
2026-05-06 02:23 24.45948 -104.97517 38906 ft 505 kts 133°
2026-05-06 02:24 24.41684 -104.91404 38866 ft 503 kts 133°
2026-05-06 02:24 24.37432 -104.85314 38898 ft 502 kts 133°
2026-05-06 02:25 24.33210 -104.79274 38940 ft 501 kts 133°
2026-05-06 02:25 24.28968 -104.73214 39019 ft 500 kts 133°
2026-05-06 02:26 24.24723 -104.67157 39084 ft 500 kts 132°
2026-05-06 02:26 24.20503 -104.61143 39152 ft 500 kts 132°
2026-05-06 02:27 24.16259 -104.55100 39176 ft 501 kts 132°
2026-05-06 02:27 24.12020 -104.49034 39177 ft 502 kts 131°
2026-05-06 02:28 24.07872 -104.42890 39164 ft 503 kts 131°
2026-05-06 02:28 24.03741 -104.36729 39083 ft 503 kts 131°
2026-05-06 02:29 23.99573 -104.30551 38995 ft 503 kts 131°
2026-05-06 02:29 23.95431 -104.24437 38916 ft 503 kts 131°
2026-05-06 02:30 23.91259 -104.18291 38857 ft 503 kts 131°
2026-05-06 02:30 23.87087 -104.12148 38859 ft 502 kts 131°
2026-05-06 02:31 23.82919 -104.06018 38876 ft 502 kts 131°
2026-05-06 02:31 23.78748 -103.99890 38873 ft 502 kts 131°
2026-05-06 02:32 23.74580 -103.93775 38868 ft 501 kts 131°
2026-05-06 02:32 23.70442 -103.87710 38887 ft 500 kts 131°
2026-05-06 02:33 23.66292 -103.81593 38900 ft 500 kts 130°
2026-05-06 02:33 23.64925 -103.79574 38896 ft 500 kts 130°
2026-05-06 02:34 23.57976 -103.69463 38913 ft 500 kts 131°
2026-05-06 02:34 23.53788 -103.63404 38908 ft 500 kts 131°
2026-05-06 02:35 23.49612 -103.57343 38918 ft 500 kts 131°
2026-05-06 02:35 23.45453 -103.51277 38908 ft 499 kts 131°
2026-05-06 02:36 23.41296 -103.45221 38912 ft 499 kts 130°
2026-05-06 02:36 23.37170 -103.39212 38928 ft 497 kts 130°
2026-05-06 02:37 23.33020 -103.33181 38911 ft 497 kts 130°
2026-05-06 02:37 23.28874 -103.27166 38923 ft 497 kts 130°
2026-05-06 02:38 23.24708 -103.21128 38924 ft 498 kts 130°
2026-05-06 02:38 23.20545 -103.15101 38905 ft 499 kts 130°
2026-05-06 02:39 23.16379 -103.09072 38912 ft 498 kts 130°
2026-05-06 02:39 23.12220 -103.03070 38908 ft 497 kts 130°
2026-05-06 02:40 23.08054 -102.97077 38962 ft 496 kts 130°
2026-05-06 02:40 23.03918 -102.91133 39030 ft 496 kts 130°
2026-05-06 02:41 22.99764 -102.85164 39113 ft 495 kts 130°
2026-05-06 02:41 22.95602 -102.79191 39194 ft 495 kts 130°
2026-05-06 02:42 22.91436 -102.73249 39220 ft 493 kts 133°
2026-05-06 02:42 22.86649 -102.68011 39225 ft 486 kts 143°
2026-05-06 02:43 22.81188 -102.63760 39219 ft 482 kts 150°
2026-05-06 02:43 22.75573 -102.59785 39138 ft 482 kts 150°
2026-05-06 02:44 22.70000 -102.55827 39060 ft 482 kts 150°
2026-05-06 02:44 22.64402 -102.51816 38987 ft 482 kts 150°
2026-05-06 02:45 22.58813 -102.47798 38904 ft 482 kts 150°
2026-05-06 02:45 22.53212 -102.43775 38917 ft 482 kts 150°
2026-05-06 02:46 22.47620 -102.39765 38903 ft 482 kts 150°
2026-05-06 02:46 22.42030 -102.35760 38910 ft 482 kts 150°
2026-05-06 02:47 22.36469 -102.31781 38891 ft 482 kts 150°
2026-05-06 02:47 22.30870 -102.27779 38874 ft 483 kts 150°
2026-05-06 02:48 22.25264 -102.23775 38896 ft 482 kts 150°
2026-05-06 02:48 22.19669 -102.19783 38890 ft 483 kts 150°
2026-05-06 02:49 22.14049 -102.15777 38882 ft 483 kts 150°
2026-05-06 02:49 22.08436 -102.11780 38879 ft 483 kts 150°
2026-05-06 02:50 22.02814 -102.07779 38882 ft 483 kts 150°
2026-05-06 02:50 21.97237 -102.03815 38874 ft 483 kts 149°
2026-05-06 02:51 21.91642 -101.99842 38888 ft 481 kts 149°
2026-05-06 02:51 21.86048 -101.95874 38886 ft 481 kts 150°
2026-05-06 02:52 21.80460 -101.91913 38894 ft 480 kts 150°
2026-05-06 02:52 21.74918 -101.87989 38893 ft 480 kts 150°
2026-05-06 02:53 21.69344 -101.84045 38893 ft 479 kts 149°
2026-05-06 02:53 21.63770 -101.80104 38906 ft 479 kts 149°
2026-05-06 02:54 21.58312 -101.75973 38897 ft 482 kts 141°
2026-05-06 02:54 21.54418 -101.71658 38922 ft 486 kts 131°
2026-05-06 02:55 21.50565 -101.65654 38919 ft 489 kts 125°
2026-05-06 02:55 21.46869 -101.59508 38917 ft 489 kts 125°
2026-05-06 02:56 21.43142 -101.53380 38919 ft 490 kts 126°
2026-05-06 02:56 21.39411 -101.47321 38922 ft 490 kts 126°
2026-05-06 02:57 21.35644 -101.41231 38919 ft 490 kts 126°
2026-05-06 02:57 21.31874 -101.35139 38920 ft 489 kts 126°
2026-05-06 02:58 21.28103 -101.29050 38916 ft 489 kts 126°
2026-05-06 02:58 21.24341 -101.22980 38915 ft 488 kts 126°
2026-05-06 02:59 21.20584 -101.16923 38915 ft 488 kts 126°
2026-05-06 02:59 21.16831 -101.10881 38913 ft 487 kts 126°
2026-05-06 03:00 21.13072 -101.04836 38915 ft 487 kts 126°
2026-05-06 03:00 21.09320 -100.98805 38909 ft 486 kts 126°
2026-05-06 03:01 21.05486 -100.92897 38918 ft 485 kts 129°
2026-05-06 03:01 21.01378 -100.87159 38903 ft 485 kts 130°
2026-05-06 03:02 20.97241 -100.81446 38902 ft 485 kts 130°
2026-05-06 03:02 20.93122 -100.75726 38898 ft 485 kts 130°
2026-05-06 03:03 20.89039 -100.70032 38903 ft 485 kts 130°
2026-05-06 03:03 20.84925 -100.64292 38904 ft 485 kts 130°
2026-05-06 03:04 20.80809 -100.58558 38888 ft 486 kts 129°
2026-05-06 03:04 20.76687 -100.52823 38902 ft 486 kts 129°
2026-05-06 03:05 20.72574 -100.47106 38906 ft 485 kts 129°
2026-05-06 03:05 20.68482 -100.41426 38925 ft 484 kts 129°
2026-05-06 03:06 20.64373 -100.35726 38920 ft 484 kts 129°
2026-05-06 03:06 20.60263 -100.30031 39271 ft 484 kts 129°
2026-05-06 03:07 20.56158 -100.24348 39246 ft 480 kts 129°
2026-05-06 03:07 20.54139 -100.21553 38986 ft 472 kts 129°
2026-05-06 03:07 20.52134 -100.18780 38261 ft 472 kts 130°
2026-05-06 03:07 20.50135 -100.16019 37235 ft 478 kts 130°
2026-05-06 03:08 20.48086 -100.13193 36167 ft 485 kts 130°
2026-05-06 03:08 20.46013 -100.10333 35169 ft 490 kts 130°
2026-05-06 03:08 20.43917 -100.07441 34219 ft 494 kts 130°
2026-05-06 03:08 20.41807 -100.04531 33183 ft 497 kts 130°
2026-05-06 03:09 20.39685 -100.01604 32160 ft 498 kts 130°
2026-05-06 03:09 20.37556 -99.98669 31085 ft 500 kts 130°
2026-05-06 03:09 20.35425 -99.95733 30129 ft 501 kts 130°
2026-05-06 03:09 20.33301 -99.92808 29303 ft 496 kts 130°
2026-05-06 03:10 20.31207 -99.89924 28711 ft 487 kts 130°
2026-05-06 03:10 20.29153 -99.87098 28121 ft 479 kts 130°
2026-05-06 03:10 20.27149 -99.84344 27471 ft 472 kts 130°
2026-05-06 03:10 20.25147 -99.81594 26797 ft 468 kts 129°
2026-05-06 03:11 20.23149 -99.78884 26108 ft 458 kts 132°
2026-05-06 03:11 20.20785 -99.76645 25311 ft 455 kts 148°
2026-05-06 03:11 20.17950 -99.75215 24696 ft 450 kts 163°
2026-05-06 03:11 20.14917 -99.74542 24084 ft 442 kts 170°
2026-05-06 03:12 20.11886 -99.74013 23392 ft 440 kts 170°
2026-05-06 03:12 20.08871 -99.73461 22646 ft 437 kts 169°
2026-05-06 03:12 20.05925 -99.72901 22020 ft 434 kts 169°
2026-05-06 03:12 20.02973 -99.72325 21415 ft 429 kts 169°
2026-05-06 03:13 20.00055 -99.71747 20804 ft 425 kts 169°
2026-05-06 03:13 19.97178 -99.71175 20625 ft 411 kts 169°
2026-05-06 03:13 19.94420 -99.70627 20524 ft 396 kts 168°
2026-05-06 03:13 19.91824 -99.70113 20324 ft 364 kts 168°
2026-05-06 03:14 19.89409 -99.69634 19892 ft 348 kts 169°
2026-05-06 03:14 19.87037 -99.69164 19634 ft 342 kts 168°
2026-05-06 03:14 19.84783 -99.68523 19255 ft 333 kts 153°
2026-05-06 03:14 19.82903 -99.67115 18864 ft 331 kts 134°
2026-05-06 03:15 19.81481 -99.65201 18546 ft 327 kts 124°
2026-05-06 03:15 19.80216 -99.63212 18180 ft 323 kts 122°
2026-05-06 03:15 19.79383 -99.61028 17810 ft 319 kts 99°
2026-05-06 03:15 19.79405 -99.58737 17463 ft 305 kts 79°
2026-05-06 03:16 19.80063 -99.56617 16992 ft 301 kts 64°
2026-05-06 03:16 19.81246 -99.54828 16811 ft 304 kts 47°
2026-05-06 03:16 19.82731 -99.53222 16759 ft 304 kts 46°
2026-05-06 03:16 19.84218 -99.51626 16744 ft 301 kts 46°
2026-05-06 03:17 19.85568 -99.49955 16655 ft 296 kts 63°
2026-05-06 03:17 19.86075 -99.47879 16373 ft 292 kts 94°
2026-05-06 03:17 19.85579 -99.45808 15996 ft 292 kts 117°
2026-05-06 03:17 19.84402 -99.44044 15614 ft 293 kts 134°
2026-05-06 03:18 19.82791 -99.42731 15227 ft 293 kts 149°
2026-05-06 03:18 19.81024 -99.41671 14984 ft 290 kts 150°
2026-05-06 03:18 19.79272 -99.40657 14818 ft 285 kts 150°
2026-05-06 03:18 19.77528 -99.39645 14649 ft 286 kts 150°
2026-05-06 03:19 19.75774 -99.38617 14489 ft 290 kts 150°
2026-05-06 03:19 19.74026 -99.37583 14319 ft 293 kts 150°
2026-05-06 03:19 19.72253 -99.36527 14184 ft 292 kts 150°
2026-05-06 03:19 19.70488 -99.35473 14019 ft 290 kts 150°
2026-05-06 03:20 19.66986 -99.33375 13655 ft 287 kts 149°
2026-05-06 03:20 19.65254 -99.32335 13508 ft 285 kts 150°
2026-05-06 03:20 19.63531 -99.31301 13357 ft 283 kts 149°
2026-05-06 03:21 19.61821 -99.30275 13203 ft 282 kts 150°
2026-05-06 03:21 19.60113 -99.29251 13064 ft 282 kts 149°
2026-05-06 03:21 19.58469 -99.28120 12923 ft 283 kts 143°
2026-05-06 03:21 19.56913 -99.26879 12784 ft 276 kts 142°
2026-05-06 03:22 19.55401 -99.25668 12645 ft 268 kts 142°
2026-05-06 03:22 19.53925 -99.24505 12527 ft 258 kts 144°
2026-05-06 03:22 19.52327 -99.23791 12431 ft 256 kts 174°
2026-05-06 03:22 19.50506 -99.23927 11945 ft 274 kts 191°
2026-05-06 03:23 19.48619 -99.24355 11259 ft 277 kts 191°
2026-05-06 03:23 19.46739 -99.24766 10665 ft 272 kts 191°
2026-05-06 03:23 19.44935 -99.25152 10328 ft 257 kts 189°
2026-05-06 03:23 19.43240 -99.25095 10117 ft 235 kts 159°
2026-05-06 03:24 19.41880 -99.24235 9965 ft 223 kts 138°
2026-05-06 03:24 19.40838 -99.23050 9767 ft 219 kts 129°
2026-05-06 03:24 19.39873 -99.21796 9614 ft 219 kts 128°
2026-05-06 03:24 19.38920 -99.20550 9462 ft 214 kts 128°
2026-05-06 03:25 19.38102 -99.19316 9350 ft 203 kts 111°
2026-05-06 03:25 19.38014 -99.17907 9216 ft 184 kts 77°
2026-05-06 03:25 19.38418 -99.16679 9106 ft 171 kts 68°
2026-05-06 03:25 19.38891 -99.15565 9043 ft 165 kts 66°
2026-05-06 03:26 19.39427 -99.14466 9014 ft 171 kts 62°
2026-05-06 03:26 19.40042 -99.13359 8758 ft 174 kts 61°
2026-05-06 03:26 19.40655 -99.12263 8494 ft 170 kts 60°
2026-05-06 03:26 19.41227 -99.11195 8041 ft 162 kts 59°
2026-05-06 03:27 19.41776 -99.10218 7775 ft 151 kts 57°
2026-05-06 03:27 19.42322 -99.09250 7564 ft 154 kts 57°
2026-05-06 03:27 19.42853 -99.08300 7356 ft 149 kts 57°
2026-05-06 03:27 19.43364 -99.07403 7309 ft 126 kts 59°
2026-05-06 03:28 19.43719 -99.06772 7308 ft 73 kts 59°
2026-05-06 03:28 19.43913 -99.06430 7308 ft 40 kts 59°
2026-05-06 03:28 19.44034 -99.06270 7310 ft 22 kts 41°
2026-05-06 03:28 19.44142 -99.06199 7307 ft 15 kts 21°
2026-05-06 03:29 19.44243 -99.06169 7308 ft 15 kts
2026-05-06 03:29 19.44348 -99.06167 7308 ft 15 kts 344°
2026-05-06 03:29 19.44406 -99.06241 7309 ft 10 kts 291°
2026-05-06 03:29 19.44416 -99.06267 7309 ft 0 kts 292°
2026-05-06 03:31 19.44418 -99.06274 7309 ft 3 kts 287°
2026-05-06 03:31 19.44415 -99.06320 7310 ft 12 kts 256°
2026-05-06 03:31 19.44353 -99.06446 7310 ft 22 kts 238°
2026-05-06 03:31 19.44274 -99.06587 7310 ft 22 kts 239°
2026-05-06 03:32 19.44195 -99.06728 7311 ft 22 kts 239°
2026-05-06 03:32 19.44115 -99.06869 7311 ft 22 kts 239°
2026-05-06 03:32 19.44036 -99.07010 7311 ft 22 kts 240°
2026-05-06 03:32 19.43957 -99.07152 7311 ft 22 kts 238°
2026-05-06 03:33 19.43877 -99.07292 7310 ft 22 kts 238°
2026-05-06 03:33 19.43799 -99.07431 7310 ft 22 kts 239°
2026-05-06 03:33 19.43720 -99.07572 7309 ft 22 kts 239°
2026-05-06 03:33 19.43641 -99.07714 7310 ft 22 kts 239°
2026-05-06 03:34 19.43571 -99.07838 7309 ft 12 kts 239°
2026-05-06 03:34 19.43575 -99.07904 7309 ft 8 kts 314°
2026-05-06 03:34 19.43603 -99.07925 7309 ft 5 kts 327°
2026-05-06 03:34 19.43611 -99.07931 7309 ft 0 kts 328°